Regional Weather Roundup
Issued by NWS Newport/Morehead, NC

Current Version | Previous Version | Graphics & Text | Print | Product List | Glossary On
Versions: 1 2 3 4 5 6 7 8 9 10 11 12 13 14 15 16 17 18 19 20 21 22 23 24 25 26 27 28 29 30 31 32 33 34 35 36 37 38 39 40 41 42 43 44 45 46 47 48 49 50
000 ASUS42 KMHX 121013 RWRMHX WEATHER ROUNDUP FOR EASTERN NORTH CAROLINA NATIONAL WEATHER SERVICE NEWPORT/MOREHEAD CITY NC 500 AM EST FRI FEB 12 2016 NOTE: "FAIR" INDICATES FEW OR NO CLOUDS BELOW 12,000 FEET WITH NO SIGNIFICANT WEATHER AND/OR OBSTRUCTIONS TO VISIBILITY NCZ015>017-031-032-045>047-102-103-121100- NORTH COAST CITY SKY/WX TMP DP RH WIND PRES REMARKS EDENTON CLOUDY 27 16 63 N5 30.33S ELIZABETH CITY CLEAR 26 14 60 N9 30.34R KITTY HAWK MOSUNNY 31 17 57 CALM 30.30S MANTEO CLEAR 31 20 62 NE7 30.31S $$ NCZ045>047-081-094-103-104-121100- CENTRAL COAST CITY SKY/WX TMP DP RH WIND PRES REMARKS FRISCO CLEAR 34 12 40 VRB6 30.28F SWANQUARTER N/A 27 N/A N/A N3 30.27S $$ NCZ095-097-098-100-101-121100- SOUTHERN COAST CITY SKY/WX TMP DP RH WIND PRES REMARKS BEAUFORT MOCLDY 32 18 56 NE7 30.27F CEDAR ISLAND N/A 36 N/A N/A N18 30.33S JACKSONVILLE CLOUDY 31 13 47 NE3 30.27S PINEY ISLAND SUNNY N/A N/A N/A NE12 30.28F WILMINGTON CLOUDY 35 16 45 NE9 30.24F $$ NCZ011>013-027>030-043-044-078>080-089-090>093-098-121100- COASTAL PLAIN CITY SKY/WX TMP DP RH WIND PRES REMARKS AHOSKIE CLOUDY 24 9 53 NE3 30.34R CLINTON CLOUDY 30 12 47 E6 30.27F ELIZABETHTOWN PTCLDY 30 17 58 CALM 30.24F GOLDSBORO CLOUDY 28 10 47 NE7 30.26F GREENVILLE PTCLDY 28 16 59 NE5 30.30F HAVELOCK PTCLDY 31 16 54 NE12 30.28F KENANSVILLE CLEAR 27 16 62 CALM 30.28S KINSTON PTCLDY 28 15 57 NE8 30.29F NEW BERN CLEAR 28 16 60 NE6 30.30F RICHLANDS N/A 27 14 59 N9 30.27F ROCKY MOUNT CLOUDY 26 9 48 NE8 30.30F WASHINGTON PTCLDY 27 13 57 NE7 30.30F WHITEVILLE CLOUDY 33 19 56 NE7 30.22S $$ AMZ130-135-150-152-154-156-158-170-250-252-270-ANZ085-086-088-633-658-670-121100- MARINE OBSERVATIONS STATION/POSITION TIME TEMP WIND PRES WAVE SWELL AIR SEA DIR/SP/G HT/PER HT/PER (UTC) (F) (DEG/KT/KT) (MB) (FT/S) (FT/S) CHESAPEAKE LIGHT 1000 27 360/ 12/ 13 1027.8 64 E VA BEACH 0950 31 49 340/ 10/ 14 1026.3 5/ 7 5/ 7 DUCK 0900 32 10/ 8/ 13 1026.0 2 E DUCK 0911 43 N/A 2/ 5 OREGON INLET 0900 31 40 350/ 3/ 6 1026.2 13E OREGON INLT 1000 45 N/A 3/ 7 HATTERAS CG 0900 36 45 20/ 11/ 13 1025.2 DIAMOND BUOY 0950 40 69 10/ 12/ 16 1025.3 3/ 9 2/ 9 CAPE LOOKOUT NOT AVBL BEAUFORT LAB 0900 32 45 20/ 7/ 8 1024.1 30 SE NEW RVR IN 0908 45 59 1023.7 30 SE NEW RVR IN 0925 59 N/A 3/ 7 27 SE WRIGHTSVLE 0908 48 62 80/ 10/ 16 1021.7 5 SE WRIGHTSVLE 0908 46 50 60/ 16/ 21 1024.0 225 S CAPE HAT 0950 56 68 40/ 4/ 8 N/A 5/ 6 5/ 6 41 SE CHARLESTON 0950 60 69 240/ 14/ 16 1020.5 2/ 2 $$

USA.gov is the U.S. government's official web portal to all federal, state and local government web resources and services.